Weather in Zenica

Bosnia and Herzegovina     44°12′52″N   17°54′34″E
temp.,
°C
wind,
m/s
gust,
m/s
humid.,
%
clouds,
%
prec.,
mm/h
press.,
hPa
HPBL,
m
16 may, sun
sun1623:00+8ssw2295100 0.0 101136
02:00+7s2392100 0.0 101174
05:00+7s2396100 0.0 101056
08:00+9s239091 0.1 1011155
11:00+15wsw365684 0.0 10101431
14:00+17w465198 0.4 10101827
17:00+18wsw355076 0.1 10091735
20:00+12sw1178100 0.1 100912
17 may, mon
mon1723:00+11s2386100 0.0 1009101
02:00+11s3492100 0.2 1008141
05:00+10s2498100 1.3 1006132
08:00+10s249888 3.6 1006186
11:00+13s3794100 1.0 1006559
14:00+16wsw51172100 1.9 10051890
17:00+8nne249797 3.4 1011315
20:00+8ne119520 3.4 101256
18 may, tue
tue1823:00+5ssw01965 0.0 101410
02:00+4ssw11975 0.0 101515
05:00+4s12986 0.0 101627
08:00+8ssw22880 0.0 1017232
11:00+16s11410 0.0 10151232
14:00+19s133113 0.0 10132178
17:00+18se233770 0.0 10121268
20:00+12n11726 0.0 101211
19 may, wed
wed1923:00+8ssw228311 0.0 101524
02:00+9s2383100 0.0 101475
05:00+7sse119191 0.0 101527
08:00+11ssw128064 0.4 1014227
11:00+17nw025599 0.1 10131273
14:00+12nne4482100 1.4 1014642
17:00+9nne2388100 0.3 1015464
20:00+8nne229099 0.3 1015286
20 may, thu
thu2023:00+7ne1195100 0.4 101467
02:00+6n2499100 7.1 1012264
05:00+6wnw0199100 10.3 1012157
08:00+6n2599100 19.8 1012411
11:00+6nne2697100 3.5 1014554
14:00+8n2592100 5.5 1015632
17:00+9n2691100 1.3 1015673
20:00+8n2493100 2.3 1017108